Date String (YYYY-MM-DD hh:mm:ss) UTC,Instrument flags,absolute air pressure of the measurement (hPa),sample flow rate (lpm),inlet stack bypass flow (lpm),air temperature of the measurement (°C),ambient temperature measured by the external sensor (°C),aerosol sample conditioner tube jacket temperature (°C),OPC LED temperature (°C),internal box temperature (°C),relative humidity of the measurement (%),span deviation,mass concentration of particles derived from Lorenz-Mie calculation of OPC scattering (μg/m³),mass concentration of particles derived from Lorenz-Mie calculation of OPC scattering (μg/m³),mass concentration of particles derived from Lorenz-Mie calculation of OPC scattering (μg/m³)
DateTimeUTC,F1_M11,P_M11,Q1_M11,Q2_M11,T1_M11,T2_M11,T3_M11,T4_M11,T5_M11,U1_M11,ZSPAN_M11,X0_M11,X2_M11,X1_M11
2024-02-09 18:00:00,SystemResetWarning,0823.2,5.01,000.00,018.6,018.2,000.0,026.9,020.3,18.1,0000.0,0008.72,0004.84,0004.52
2024-02-09 18:01:00,SystemResetWarning,0823.3,5.01,000.00,018.6,018.2,000.0,026.9,020.3,18.0,0000.0,0008.61,0004.82,0004.50
2024-02-09 18:02:00,SystemResetWarning,0823.3,4.99,000.00,018.6,018.2,000.0,026.9,020.4,18.0,0000.0,0008.59,0004.79,0004.47
2024-02-09 18:03:00,SystemResetWarning,0823.2,5.00,000.00,018.6,018.2,000.0,026.9,020.4,18.1,0000.0,0008.57,0004.75,0004.44
2024-02-09 18:04:00,SystemResetWarning,0823.3,4.99,000.00,018.6,018.3,000.0,027.0,020.4,18.2,0000.0,0008.45,0004.69,0004.40
2024-02-09 18:05:00,SystemResetWarning,0823.3,5.01,000.00,018.6,018.3,000.0,027.0,020.4,18.1,0000.0,0008.39,0004.66,0004.37
2024-02-09 18:06:00,SystemResetWarning,0823.2,5.01,000.00,018.6,018.3,000.0,027.0,020.4,18.4,0000.0,0008.31,0004.61,0004.31
2024-02-09 18:07:00,SystemResetWarning,0823.2,4.99,000.00,018.7,018.3,000.0,027.0,020.5,18.4,0000.0,0008.62,0004.55,0004.27
2024-02-09 18:08:00,SystemResetWarning,0823.2,4.99,000.00,018.7,018.3,000.0,027.0,020.4,18.2,0000.0,0009.35,0004.51,0004.22
2024-02-09 18:09:00,SystemResetWarning,0823.2,5.02,000.00,018.7,018.3,000.0,027.0,020.4,17.9,0000.0,0009.37,0004.46,0004.17
2024-02-09 18:10:00,SystemResetWarning,0823.3,5.01,000.00,018.7,018.3,000.0,027.0,020.5,17.9,0000.0,0009.52,0004.42,0004.15
2024-02-09 18:11:00,SystemResetWarning,0823.3,4.99,000.00,018.7,018.3,000.0,027.0,020.4,18.0,0000.0,0009.03,0004.40,0004.13
2024-02-09 18:12:00,SystemResetWarning,0823.2,4.99,000.00,018.7,018.4,000.0,027.0,020.5,17.9,0000.0,0008.43,0004.36,0004.10
2024-02-09 18:13:00,SystemResetWarning,0823.2,4.99,000.00,018.7,018.4,000.0,027.0,020.5,17.9,0000.0,0008.46,0004.35,0004.09
2024-02-09 18:14:00,SystemResetWarning,0823.1,5.01,000.00,018.7,018.4,000.0,027.0,020.5,17.8,0000.0,0008.68,0004.32,0004.07
2024-02-09 18:15:00,SystemResetWarning,0823.1,5.01,000.00,018.7,018.4,000.0,027.0,020.5,17.5,0000.0,0008.68,0004.30,0004.05
2024-02-09 18:16:00,SystemResetWarning,0823.2,4.99,000.00,018.7,018.4,000.0,027.1,020.5,17.3,0000.0,0008.65,0004.26,0004.01
2024-02-09 18:17:00,SystemResetWarning,0823.1,4.99,000.00,018.8,018.5,000.0,027.1,020.5,17.2,0000.0,0008.61,0004.24,0004.00
2024-02-09 18:18:00,SystemResetWarning,0823.1,5.00,000.00,018.8,018.5,000.0,027.1,020.6,17.2,0000.0,0008.22,0004.22,0003.98
2024-02-09 18:19:00,SystemResetWarning,0823.2,5.00,000.00,018.8,018.5,000.0,027.1,020.6,17.3,0000.0,0007.33,0004.18,0003.96
2024-02-09 18:20:00,SystemResetWarning,0823.3,5.01,000.00,018.8,018.5,000.0,027.1,020.6,17.0,0000.0,0007.11,0004.15,0003.93
2024-02-09 18:21:00,SystemResetWarning,0823.3,5.01,000.00,018.8,018.5,000.0,027.1,020.6,16.6,0000.0,0007.14,0004.09,0003.87
2024-02-09 18:22:00,SystemResetWarning,0823.2,4.99,000.00,018.8,018.5,000.0,027.1,020.6,16.4,0000.0,0007.05,0004.03,0003.82
2024-02-09 18:23:00,SystemResetWarning,0823.2,4.99,000.00,018.8,018.6,000.0,027.1,020.6,16.4,0000.0,0007.09,0004.02,0003.79
2024-02-09 18:24:00,SystemResetWarning,0823.2,5.00,000.00,018.8,018.6,000.0,027.1,020.6,16.7,0000.0,0006.86,0003.96,0003.75
2024-02-09 18:25:00,SystemResetWarning,0823.2,5.00,000.00,018.9,018.6,000.0,027.2,020.7,16.6,0000.0,0006.17,0003.91,0003.69
2024-02-09 18:26:00,SystemResetWarning,0823.2,5.01,000.00,018.9,018.6,000.0,027.2,020.6,16.5,0000.0,0006.39,0003.87,0003.65
2024-02-09 18:27:00,SystemResetWarning,0823.2,5.00,000.00,018.9,018.6,000.0,027.2,020.7,16.6,0000.0,0006.39,0003.82,0003.61
2024-02-09 18:28:00,SystemResetWarning,0823.1,5.00,000.00,018.9,018.7,000.0,027.2,020.7,16.4,0000.0,0006.57,0003.77,0003.57
2024-02-09 18:29:00,SystemResetWarning,0823.1,4.99,000.00,018.9,018.7,000.0,027.2,020.7,16.0,0000.0,0006.93,0003.75,0003.55
2024-02-09 18:30:00,SystemResetWarning,0823.1,4.99,000.00,019.0,018.7,000.0,027.2,020.7,16.2,0000.0,0007.12,0003.75,0003.53
2024-02-09 18:31:00,SystemResetWarning,0823.1,4.99,000.00,019.0,018.7,000.0,027.2,020.8,16.1,0000.0,0007.38,0003.78,0003.53
2024-02-09 18:32:00,SystemResetWarning,0823.1,5.01,000.00,019.0,018.8,000.0,027.2,020.8,16.3,0000.0,0007.07,0003.77,0003.53
2024-02-09 18:33:00,SystemResetWarning,0823.1,5.00,000.00,019.0,018.8,000.0,027.2,020.8,16.8,0000.0,0007.39,0003.77,0003.53
2024-02-09 18:34:00,SystemResetWarning,0823.0,5.01,000.00,019.0,018.8,000.0,027.3,020.8,16.8,0000.0,0007.48,0003.73,0003.50
2024-02-09 18:35:00,SystemResetWarning,0823.0,5.01,000.00,019.1,018.8,000.0,027.3,020.8,17.2,0000.0,0007.66,0003.70,0003.47
2024-02-09 18:36:00,SystemResetWarning,0823.0,5.00,000.00,019.1,018.9,000.0,027.3,020.9,17.2,0000.0,0007.65,0003.69,0003.48
2024-02-09 18:37:00,SystemResetWarning,0823.0,4.99,000.00,019.1,018.9,000.0,027.3,020.9,16.8,0000.0,0007.60,0003.70,0003.47
2024-02-09 18:38:00,SystemResetWarning,0823.0,5.00,000.00,019.1,018.9,000.0,027.3,020.9,16.7,0000.0,0007.62,0003.73,0003.49
2024-02-09 18:39:00,SystemResetWarning,0823.0,5.00,000.00,019.1,018.9,000.0,027.4,020.9,16.6,0000.0,0007.68,0003.75,0003.50
2024-02-09 18:40:00,SystemResetWarning,0823.0,5.00,000.00,019.1,018.9,000.0,027.4,021.0,16.8,0000.0,0007.49,0003.78,0003.52
2024-02-09 18:41:00,SystemResetWarning,0823.1,5.00,000.00,019.2,019.0,000.0,027.4,021.0,16.9,0000.0,0007.39,0003.80,0003.54
2024-02-09 18:42:00,SystemResetWarning,0822.9,5.01,000.00,019.2,019.0,000.0,027.4,021.0,17.3,0000.0,0007.31,0003.77,0003.54
2024-02-09 18:43:00,SystemResetWarning,0823.0,5.00,000.00,019.2,019.0,000.0,027.4,021.0,17.8,0000.0,0007.31,0003.80,0003.55
2024-02-09 18:44:00,SystemResetWarning,0823.1,5.01,000.00,019.2,019.0,000.0,027.5,021.1,18.5,0000.0,0006.88,0003.84,0003.57
2024-02-09 18:45:00,SystemResetWarning,0823.1,5.01,000.00,019.3,019.1,000.0,027.5,021.1,18.7,0000.0,0007.85,0003.90,0003.60
2024-02-09 18:46:00,SystemResetWarning,0823.1,5.00,000.00,019.3,019.1,000.0,027.5,021.1,17.7,0000.0,0008.88,0003.95,0003.61
2024-02-09 18:47:00,SystemResetWarning,0822.9,4.99,000.00,019.3,019.1,000.0,027.5,021.1,17.5,0000.0,0009.17,0003.97,0003.60
2024-02-09 18:48:00,SystemResetWarning,0822.9,5.00,000.00,019.3,019.1,000.0,027.5,021.1,17.8,0000.0,0009.19,0003.99,0003.60
2024-02-09 18:49:00,SystemResetWarning,0822.9,4.99,000.00,019.3,019.1,000.0,027.5,021.1,17.5,0000.0,0009.66,0004.01,0003.60
2024-02-09 18:50:00,SystemResetWarning,0822.9,5.00,000.00,019.3,019.1,000.0,027.6,021.1,18.7,0000.0,0009.84,0004.01,0003.59
2024-02-09 18:51:00,SystemResetWarning,0823.1,5.00,000.00,019.3,019.1,000.0,027.6,021.1,19.0,0000.0,0010.10,0004.02,0003.57
2024-02-09 18:52:00,SystemResetWarning,0823.1,5.01,000.00,019.3,019.2,000.0,027.6,021.1,19.0,0000.0,0011.03,0004.05,0003.54
2024-02-09 18:53:00,SystemResetWarning,0822.9,5.00,000.00,019.4,019.2,000.0,027.6,021.2,18.5,0000.0,0011.12,0004.06,0003.53
2024-02-09 18:54:00,SystemResetWarning,0823.1,5.01,000.00,019.4,019.2,000.0,027.6,021.2,18.3,0000.0,0011.10,0004.04,0003.52
2024-02-09 18:55:00,SystemResetWarning,0822.9,5.00,000.00,019.4,019.2,000.0,027.6,021.2,18.1,0000.0,0011.09,0004.01,0003.49
2024-02-09 18:56:00,SystemResetWarning,0822.8,4.99,000.00,019.4,019.2,000.0,027.6,021.2,18.1,0000.0,0010.46,0003.96,0003.47
2024-02-09 18:57:00,SystemResetWarning,0823.1,4.99,000.00,019.4,019.2,000.0,027.7,021.2,18.1,0000.0,0009.39,0003.96,0003.45
2024-02-09 18:58:00,SystemResetWarning,0823.3,5.00,000.00,019.4,019.2,000.0,027.7,021.2,18.2,0000.0,0009.19,0003.99,0003.46
2024-02-09 18:59:00,SystemResetWarning,0823.2,5.01,000.00,019.4,019.2,000.0,027.7,021.2,18.1,0000.0,0009.90,0004.01,0003.47
